| time (UTC) | temp F | wind direction | speed knots | gust knots | rain 1hr in | rain 24hr in | rain mn in | humidity % | barometer mb |
| 20260505201126 | 87 | 152 | 0.0 | 0.0 | 2.71 | 0.00 | 0.00 | 1014.6 | |
| 20260505200626 | 86 | 179 | 5.2 | 0.0 | 2.71 | 0.00 | 0.00 | 1014.8 | |
| 20260505200126 | 86 | 208 | 0.0 | 0.0 | 2.71 | 0.00 | 0.00 | 1015.0 | |
| 20260505195626 | 88 | 177 | 5.2 | 0.0 | 2.71 | 0.00 | 0.00 | 1015.0 | |
| 20260505195126 | 88 | 218 | 0.0 | 0.0 | 2.71 | 0.00 | 0.00 | 1015.1 | |
| 20260505194626 | 88 | 176 | 5.2 | 0.0 | 2.71 | 0.00 | 0.00 | 1015.1 | |
| 20260505194126 | 88 | 233 | 5.2 | 0.0 | 2.71 | 0.00 | 0.00 | 1015.2 | |
| 20260505193626 | 88 | 165 | 4.3 | 0.0 | 2.71 | 0.00 | 0.00 | 1015.0 | |
| 20260505193126 | 88 | 105 | 2.6 | 0.0 | 2.71 | 0.00 | 0.00 | 1015.2 | |
| 20260505192626 | 87 | 170 | 0.0 | 0.0 | 2.71 | 0.00 | 0.00 | 1015.2 | |
| 20260505192126 | 86 | 170 | 0.0 | 0.0 | 2.71 | 0.00 | 0.00 | 1015.1 | |
| 20260505191626 | 86 | 193 | 5.2 | 0.0 | 2.71 | 0.00 | 0.00 | 1015.3 | |
| 20260505191126 | 87 | 304 | 0.0 | 0.0 | 2.71 | 0.00 | 0.00 | 1015.4 | |
| 20260505190626 | 87 | 166 | 6.1 | 0.0 | 2.71 | 0.00 | 0.00 | 1015.4 | |
| 20260505190126 | 86 | 190 | 5.2 | 0.0 | 2.71 | 0.00 | 0.00 | 1015.5 | |
| 20260505185626 | 84 | 139 | 3.5 | 0.0 | 2.71 | 0.00 | 0.00 | 1015.7 | |
| 20260505185126 | 86 | 194 | 0.0 | 0.0 | 2.71 | 0.00 | 0.00 | 1015.8 | |
| 20260505184626 | 86 | 194 | 4.3 | 0.0 | 2.71 | 0.00 | 0.00 | 1015.8 | |
| 20260505184127 | 85 | 193 | 5.2 | 0.0 | 2.71 | 0.00 | 0.00 | 1015.9 | |
| 20260505183626 | 84 | 173 | 6.1 | 0.0 | 2.71 | 0.00 | 0.00 | 1015.9 | |
| 20260505183126 | 84 | 193 | 0.0 | 0.0 | 2.71 | 0.00 | 0.00 | 1015.9 | |
| 20260505182626 | 85 | 170 | 0.0 | 0.0 | 2.71 | 0.00 | 0.00 | 1015.9 | |
| 20260505182126 | 86 | 149 | 0.0 | 0.0 | 2.71 | 0.00 | 0.00 | 1016.0 | |
| 20260505181628 | 86 | 149 | 2.6 | 0.0 | 2.71 | 0.00 | 0.00 | 1015.9 | |
| 20260505181126 | 85 | 150 | 5.2 | 0.0 | 2.71 | 0.00 | 0.00 | 1015.9 | |
| 20260505180626 | 86 | 198 | 4.3 | 0.0 | 2.71 | 0.00 | 0.00 | 1016.0 | |
| 20260505180126 | 86 | 207 | 0.0 | 0.0 | 2.71 | 0.00 | 0.00 | 1016.0 | |
| 20260505175626 | 85 | 138 | 1.7 | 0.0 | 2.71 | 0.00 | 0.00 | 1016.0 | |
| 20260505175127 | 87 | 166 | 5.2 | 0.0 | 2.71 | 0.00 | 0.00 | 1016.0 | |
| 20260505174627 | 85 | 122 | 0.0 | 0.0 | 2.71 | 0.00 | 0.00 | 1016.1 | |
| 20260505174127 | 85 | 169 | 0.0 | 0.0 | 2.71 | 0.00 | 0.00 | 1016.2 | |
| 20260505173627 | 84 | 169 | 5.2 | 0.0 | 2.71 | 0.00 | 0.00 | 1016.1 | |
| 20260505173127 | 84 | 184 | 4.3 | 0.0 | 2.71 | 0.00 | 0.00 | 1016.1 | |
| 20260505172627 | 84 | 217 | 0.0 | 0.0 | 2.71 | 0.00 | 0.00 | 1016.2 | |
| 20260505172127 | 84 | 135 | 1.7 | 0.0 | 2.71 | 0.00 | 0.00 | 1016.3 | |
| 20260505171627 | 83 | 266 | 2.6 | 0.0 | 2.71 | 0.00 | 0.00 | 1016.4 | |
| 20260505171127 | 82 | 118 | 4.3 | 0.0 | 2.71 | 0.00 | 0.00 | 1016.6 | |
| 20260505170627 | 82 | 169 | 3.5 | 0.0 | 2.71 | 0.00 | 0.00 | 1016.7 | |
| 20260505170127 | 81 | 217 | 4.3 | 0.0 | 2.71 | 0.00 | 0.00 | 1016.5 | |
| 20260505165627 | 84 | 238 | 0.0 | 0.0 | 2.71 | 0.00 | 0.00 | 1016.5 | |
| 20260505165127 | 83 | 145 | 5.2 | 0.0 | 2.71 | 0.00 | 0.00 | 1016.6 | |
| 20260505164627 | 84 | 125 | 0.0 | 0.0 | 2.71 | 0.00 | 0.00 | 1016.7 | |
| 20260505164127 | 83 | 136 | 0.0 | 0.0 | 2.71 | 0.00 | 0.00 | 1016.7 | |
| 20260505163627 | 80 | 316 | 5.2 | 0.0 | 2.71 | 0.00 | 0.00 | 1016.8 | |
| 20260505163127 | 83 | 170 | 0.0 | 0.0 | 2.71 | 0.00 | 0.00 | 1016.9 | |
| 20260505162628 | 83 | 197 | 4.3 | 0.0 | 2.71 | 0.00 | 0.00 | 1017.0 | |
| 20260505162127 | 81 | 149 | 0.0 | 0.0 | 2.71 | 0.00 | 0.00 | 1017.0 | |
| 20260505161627 | 79 | 246 | 0.0 | 0.0 | 2.71 | 0.00 | 0.00 | 1017.1 | |
| 20260505161127 | 79 | 246 | 0.0 | 0.0 | 2.71 | 0.00 | 0.00 | 1017.2 | |
| 20260505160627 | 81 | 297 | 6.1 | 0.0 | 2.71 | 0.00 | 0.00 | 1017.2 | |
| 20260505160127 | 82 | 191 | 3.5 | 0.0 | 2.71 | 0.00 | 0.00 | 1017.3 | |
| 20260505153127 | 81 | 165 | 3.5 | 0.0 | 2.71 | 0.00 | 0.00 | 1017.4 | |
| 20260505152627 | 80 | 142 | 2.6 | 0.0 | 2.71 | 0.00 | 0.00 | 1017.5 | |
| 20260505152127 | 79 | 127 | 2.6 | 0.0 | 2.71 | 0.00 | 0.00 | 1017.5 | |
| 20260505151857 | 62 | 180 | 0.0 | 0.0 | 2.71 | 0.00 | 0.00 | 1017.1 | |
| 20260505151627 | 76 | 160 | 3.5 | 0.0 | 2.71 | 0.00 | 0.00 | 1017.5 | |
| 20260505151236 | 75 | 248 | 3.5 | 0.0 | 2.71 | 0.00 | 0.00 | 1017.4 | |
| 20260505151127 | 75 | 248 | 3.5 | 0.0 | 2.71 | 0.00 | 0.00 | 1017.4 | |
| 20260505150627 | 76 | 257 | 7.0 | 0.0 | 2.71 | 0.00 | 0.00 | 1017.5 | |
| 20260505150127 | 76 | 160 | 0.0 | 0.0 | 2.71 | 0.00 | 0.00 | 1017.4 | |
| 20260505140627 | 71 | 238 | 3.5 | 0.0 | 2.71 | 0.00 | 0.00 | 1017.3 | |
| 20260505140127 | 71 | 211 | 2.6 | 0.0 | 2.71 | 0.00 | 0.00 | 1017.3 | |
| 20260505130127 | 63 | 148 | 0.0 | 0.0 | 2.71 | 0.00 | 0.00 | 1017.4 | |
| 20260505124627 | 62 | 226 | 0.0 | 0.0 | 2.71 | 0.00 | 0.00 | 1017.3 | |
| 20260505124127 | 62 | 301 | 0.0 | 0.0 | 2.71 | 0.00 | 0.00 | 1017.4 | |
| 20260505123627 | 61 | 210 | 0.0 | 0.0 | 2.71 | 0.00 | 0.00 | 1017.2 | |
| 20260505123127 | 62 | 205 | 0.0 | 0.0 | 2.71 | 0.00 | 0.00 | 1017.2 | |
| 20260505122627 | 62 | 205 | 0.0 | 0.0 | 2.71 | 0.00 | 0.00 | 1017.2 | |
| 20260505122127 | 62 | 180 | 0.0 | 0.0 | 2.71 | 0.00 | 0.00 | 1017.1 | |
| 20260505121627 | 61 | 180 | 0.0 | 0.0 | 2.71 | 0.00 | 0.00 | 1017.1 | |
| 20260505121203 | 62 | 169 | 2.6 | 0.0 | 2.71 | 0.00 | 0.00 | 1016.9 | |
| 20260505121127 | 62 | 169 | 2.6 | 0.0 | 2.71 | 0.00 | 0.00 | 1016.9 | |
| 20260505121009 | 55 | 174 | 0.0 | 0.0 | 2.71 | 0.00 | 0.00 | 1017.0 | |
| 20260505121001 | 54 | 174 | 0.0 | 0.0 | 2.71 | 0.00 | 0.00 | 1016.9 | |
| 20260505120757 | 61 | 174 | 0.0 | 0.0 | 2.71 | 0.00 | 0.00 | 1017.1 | |
| 20260505120627 | 61 | 174 | 0.0 | 0.0 | 2.71 | 0.00 | 0.00 | 1017.1 | |
| 20260505120209 | 59 | 174 | 0.0 | 0.0 | 2.71 | 0.00 | 0.00 | 1017.1 | |
| 20260505120127 | 59 | 174 | 0.0 | 0.0 | 2.71 | 0.00 | 0.00 | 1017.1 | |
| 20260505115627 | 59 | 174 | 0.0 | 0.0 | 2.71 | 0.00 | 0.00 | 1017.1 | |
| 20260505115221 | 57 | 174 | 0.0 | 0.0 | 2.71 | 0.00 | 0.00 | 1017.2 | |
| 20260505115127 | 57 | 174 | 0.0 | 0.0 | 2.71 | 0.00 | 0.00 | 1017.2 | |
| 20260505114627 | 57 | 174 | 0.0 | 0.0 | 2.71 | 0.00 | 0.00 | 1017.0 | |
| 20260505114127 | 56 | 174 | 0.0 | 0.0 | 2.71 | 0.00 | 0.00 | 1017.0 | |
| 20260505113627 | 55 | 174 | 0.0 | 0.0 | 2.71 | 0.00 | 0.00 | 1017.0 | |
| 20260505113127 | 54 | 174 | 0.0 | 0.0 | 2.71 | 0.00 | 0.00 | 1016.9 | |
| 20260505112627 | 53 | 174 | 0.0 | 0.0 | 2.71 | 0.00 | 0.00 | 1016.8 | |
| 20260505112127 | 52 | 174 | 0.0 | 0.0 | 2.71 | 0.00 | 0.00 | 1016.9 | |
| 20260505111714 | 52 | 174 | 0.0 | 0.0 | 2.71 | 0.00 | 0.00 | 1016.8 | |
| 20260505111627 | 52 | 174 | 0.0 | 0.0 | 2.71 | 0.00 | 0.00 | 1016.8 | |
| 20260505110713 | 51 | 174 | 0.0 | 0.0 | 2.71 | 0.00 | 0.00 | 1016.8 | |
| 20260505110627 | 51 | 174 | 0.0 | 0.0 | 2.71 | 0.00 | 0.00 | 1016.8 | |
| 20260505110202 | 51 | 174 | 0.0 | 0.0 | 2.71 | 0.00 | 0.00 | 1016.8 | |
| 20260505110127 | 51 | 174 | 0.0 | 0.0 | 2.71 | 0.00 | 0.00 | 1016.8 | |
| 20260505102214 | 51 | 174 | 0.0 | 0.0 | 2.71 | 0.00 | 0.00 | 1016.4 | |
| 20260505102127 | 51 | 174 | 0.0 | 0.0 | 2.71 | 0.00 | 0.00 | 1016.4 | |
| 20260505101702 | 51 | 174 | 0.0 | 0.0 | 2.71 | 0.00 | 0.00 | 1016.3 | |
| 20260505101629 | 51 | 174 | 0.0 | 0.0 | 2.71 | 0.00 | 0.00 | 1016.3 | |
| 20260505101210 | 51 | 174 | 0.0 | 0.0 | 2.71 | 0.00 | 0.00 | 1016.0 | |
| 20260505101128 | 51 | 174 | 0.0 | 0.0 | 2.71 | 0.00 | 0.00 | 1016.0 | |
| 20260505100723 | 51 | 174 | 0.0 | 0.0 | 2.71 | 0.00 | 0.00 | 1016.1 | |
| 20260505100627 | 51 | 174 | 0.0 | 0.0 | 2.71 | 0.00 | 0.00 | 1016.1 | |
| 20260505100236 | 51 | 174 | 0.0 | 0.0 | 2.71 | 0.00 | 0.00 | 1016.1 | |
| 20260505100129 | 51 | 174 | 0.0 | 0.0 | 2.71 | 0.00 | 0.00 | 1016.1 | |
| 20260505095822 | 51 | 174 | 0.0 | 0.0 | 2.71 | 0.00 | 0.00 | 1016.1 | |
| 20260505095628 | 51 | 174 | 0.0 | 0.0 | 2.71 | 0.00 | 0.00 | 1016.1 | |
| 20260505095128 | 51 | 174 | 0.0 | 0.0 | 2.71 | 0.00 | 0.00 | 1016.0 | |
| 20260505094628 | 51 | 174 | 0.0 | 0.0 | 2.71 | 0.00 | 0.00 | 1015.9 | |
| 20260505094214 | 51 | 174 | 0.0 | 0.0 | 2.71 | 0.00 | 0.00 | 1015.8 | |
| 20260505094128 | 51 | 174 | 0.0 | 0.0 | 2.71 | 0.00 | 0.00 | 1015.8 | |
| 20260505093628 | 51 | 174 | 0.0 | 0.0 | 2.71 | 0.00 | 0.00 | 1015.8 | |
| 20260505093128 | 52 | 174 | 0.0 | 0.0 | 2.71 | 0.00 | 0.00 | 1015.9 | |
| 20260505092707 | 52 | 174 | 0.0 | 0.0 | 2.71 | 0.00 | 0.00 | 1015.9 | |
| 20260505092628 | 52 | 174 | 0.0 | 0.0 | 2.71 | 0.00 | 0.00 | 1015.9 | |
| 20260505092243 | 52 | 174 | 0.0 | 0.0 | 2.71 | 0.00 | 0.00 | 1015.8 | |
| 20260505092128 | 52 | 174 | 0.0 | 0.0 | 2.71 | 0.00 | 0.00 | 1015.8 | |
| 20260505091716 | 52 | 174 | 0.0 | 0.0 | 2.71 | 0.00 | 0.00 | 1015.8 | |
| 20260505091628 | 52 | 174 | 0.0 | 0.0 | 2.71 | 0.00 | 0.00 | 1015.8 | |
| 20260505091128 | 52 | 174 | 0.0 | 0.0 | 2.71 | 0.00 | 0.00 | 1015.7 | |
| 20260505090628 | 53 | 174 | 0.0 | 0.0 | 2.71 | 0.00 | 0.00 | 1015.8 | |
| 20260505090128 | 53 | 174 | 0.0 | 0.0 | 2.71 | 0.00 | 0.00 | 1015.7 | |
| 20260505085628 | 52 | 174 | 0.0 | 0.0 | 2.71 | 0.00 | 0.00 | 1015.7 | |
| 20260505085128 | 53 | 174 | 0.0 | 0.0 | 2.71 | 0.00 | 0.00 | 1015.7 | |
| 20260505084628 | 53 | 174 | 0.0 | 0.0 | 2.71 | 0.00 | 0.00 | 1015.7 | |
| 20260505084401 | 53 | 174 | 0.0 | 0.0 | 2.71 | 0.00 | 0.00 | 1015.6 | |
| 20260505084202 | 53 | 174 | 0.0 | 0.0 | 2.71 | 0.00 | 0.00 | 1015.6 | |
| 20260505084128 | 53 | 174 | 0.0 | 0.0 | 2.71 | 0.00 | 0.00 | 1015.6 | |
| 20260505083831 | 53 | 174 | 0.0 | 0.0 | 2.71 | 0.00 | 0.00 | 1015.7 | |
| 20260505083726 | 53 | 174 | 0.0 | 0.0 | 2.71 | 0.00 | 0.00 | 1015.7 | |
| 20260505083628 | 53 | 174 | 0.0 | 0.0 | 2.71 | 0.00 | 0.00 | 1015.7 | |
| 20260505083502 | 53 | 174 | 0.0 | 0.0 | 2.71 | 0.00 | 0.00 | 1015.7 | |
| 20260505083128 | 53 | 174 | 0.0 | 0.0 | 2.71 | 0.00 | 0.00 | 1015.7 | |
| 20260505082821 | 53 | 174 | 0.0 | 0.0 | 2.71 | 0.00 | 0.00 | 1015.7 | |
| 20260505082628 | 53 | 174 | 0.0 | 0.0 | 2.71 | 0.00 | 0.00 | 1015.7 | |
| 20260505082128 | 53 | 174 | 0.0 | 0.0 | 2.71 | 0.00 | 0.00 | 1015.7 | |
| 20260505081703 | 53 | 174 | 0.0 | 0.0 | 2.71 | 0.00 | 0.00 | 1015.7 | |
| 20260505081628 | 53 | 174 | 0.0 | 0.0 | 2.71 | 0.00 | 0.00 | 1015.7 | |
| 20260505081128 | 53 | 174 | 0.0 | 0.0 | 2.71 | 0.00 | 0.00 | 1015.6 | |
| 20260505080628 | 53 | 174 | 0.0 | 0.0 | 2.71 | 0.00 | 0.00 | 1015.6 | |
| 20260505080128 | 53 | 174 | 0.0 | 0.0 | 2.71 | 0.00 | 0.00 | 1015.6 | |
| 20260505075742 | 53 | 174 | 0.0 | 0.0 | 2.71 | 0.00 | 0.00 | 1015.6 | |
| 20260505075628 | 53 | 174 | 0.0 | 0.0 | 2.71 | 0.00 | 0.00 | 1015.6 | |
| 20260505075211 | 54 | 174 | 0.0 | 0.0 | 2.71 | 0.00 | 0.00 | 1015.5 | |
| 20260505075128 | 53 | 174 | 0.0 | 0.0 | 2.71 | 0.00 | 0.00 | 1015.5 | |
| 20260505074628 | 53 | 174 | 0.0 | 0.0 | 2.71 | 0.00 | 0.00 | 1015.5 | |
| 20260505074128 | 54 | 174 | 0.0 | 0.0 | 2.71 | 0.00 | 0.00 | 1015.5 | |
| 20260505073732 | 54 | 174 | 0.0 | 0.0 | 2.71 | 0.00 | 0.00 | 1015.5 | |
| 20260505073628 | 54 | 174 | 0.0 | 0.0 | 2.71 | 0.00 | 0.00 | 1015.5 | |
| 20260505073128 | 54 | 174 | 0.0 | 0.0 | 2.71 | 0.00 | 0.00 | 1015.5 | |
| 20260505072705 | 54 | 174 | 0.0 | 0.0 | 2.71 | 0.00 | 0.00 | 1015.5 | |
| 20260505072628 | 54 | 174 | 0.0 | 0.0 | 2.71 | 0.00 | 0.00 | 1015.5 | |
| 20260505072245 | 54 | 174 | 0.0 | 0.0 | 2.71 | 0.00 | 0.00 | 1015.4 | |
| 20260505072128 | 54 | 174 | 0.0 | 0.0 | 2.71 | 0.00 | 0.00 | 1015.4 | |
| 20260505071629 | 54 | 174 | 0.0 | 0.0 | 2.71 | 0.00 | 0.00 | 1015.4 | |
| 20260505071625 | 54 | 174 | 0.0 | 0.0 | 2.71 | 0.00 | 0.00 | 1015.4 | |
| 20260505071128 | 54 | 174 | 0.0 | 0.0 | 2.71 | 0.00 | 0.00 | 1015.4 | |
| 20260505070756 | 54 | 174 | 0.0 | 0.0 | 2.71 | 0.00 | 0.00 | 1015.4 | |
| 20260505070721 | 54 | 174 | 0.0 | 0.0 | 2.71 | 0.00 | 0.00 | 1015.4 | |
| 20260505070628 | 54 | 174 | 0.0 | 0.0 | 2.71 | 0.00 | 0.00 | 1015.4 | |
| 20260505070128 | 54 | 174 | 0.0 | 0.0 | 2.71 | 0.00 | 0.00 | 1015.5 | |
| 20260505065729 | 54 | 174 | 0.0 | 0.0 | 2.71 | 0.00 | 0.00 | 1015.5 | |
| 20260505065628 | 54 | 174 | 0.0 | 0.0 | 2.71 | 0.00 | 0.00 | 1015.5 | |
| 20260505065202 | 54 | 174 | 0.0 | 0.0 | 2.71 | 0.00 | 0.00 | 1015.5 | |
| 20260505065128 | 54 | 174 | 0.0 | 0.0 | 2.71 | 0.00 | 0.00 | 1015.5 | |
| 20260505064628 | 54 | 174 | 0.0 | 0.0 | 2.71 | 0.00 | 0.00 | 1015.5 | |
| 20260505064457 | 54 | 174 | 0.0 | 0.0 | 2.71 | 0.00 | 0.00 | 1015.5 | |
| 20260505064453 | 55 | 174 | 0.0 | 0.0 | 2.71 | 0.00 | 0.00 | 1015.6 | |
| 20260505064447 | 55 | 174 | 0.0 | 0.0 | 2.71 | 0.00 | 0.00 | 1015.5 | |
| 20260505064128 | 54 | 174 | 0.0 | 0.0 | 2.71 | 0.00 | 0.00 | 1015.5 | |
| 20260505063802 | 55 | 174 | 0.0 | 0.0 | 2.71 | 0.00 | 0.00 | 1015.5 | |
| 20260505063748 | 55 | 174 | 0.0 | 0.0 | 2.71 | 0.00 | 0.00 | 1015.6 | |
| 20260505063628 | 55 | 174 | 0.0 | 0.0 | 2.71 | 0.00 | 0.00 | 1015.6 | |
| 20260505063128 | 55 | 174 | 0.0 | 0.0 | 2.71 | 0.00 | 0.00 | 1015.5 | |
| 20260505062730 | 55 | 174 | 0.0 | 0.0 | 2.71 | 0.00 | 0.00 | 1015.4 | |
| 20260505062628 | 55 | 174 | 0.0 | 0.0 | 2.71 | 0.00 | 0.00 | 1015.4 | |
| 20260505062128 | 55 | 174 | 0.0 | 0.0 | 2.71 | 0.00 | 0.00 | 1015.6 | |
| 20260505062111 | 55 | 174 | 0.0 | 0.0 | 2.71 | 0.00 | 0.00 | 1015.5 | |
| 20260505061747 | 55 | 174 | 0.0 | 0.0 | 2.71 | 0.00 | 0.00 | 1015.5 | |
| 20260505061706 | 55 | 174 | 0.0 | 0.0 | 2.71 | 0.00 | 0.00 | 1015.5 | |
| 20260505061628 | 55 | 174 | 0.0 | 0.0 | 2.71 | 0.00 | 0.00 | 1015.5 | |
| 20260505061128 | 55 | 174 | 0.0 | 0.0 | 2.71 | 0.00 | 0.00 | 1015.6 | |
| 20260505060628 | 55 | 174 | 0.0 | 0.0 | 2.71 | 0.00 | 0.00 | 1015.6 | |
| 20260505060505 | 55 | 174 | 0.0 | 0.0 | 2.71 | 0.00 | 0.00 | 1015.7 | |
| 20260505060407 | 55 | 174 | 0.0 | 0.0 | 2.71 | 0.00 | 0.00 | 1015.7 | |
| 20260505060128 | 55 | 174 | 0.0 | 0.0 | 2.71 | 0.00 | 0.00 | 1015.7 | |
| 20260505055704 | 55 | 174 | 0.0 | 0.0 | 2.71 | 0.00 | 0.00 | 1015.6 | |
| 20260505055628 | 55 | 174 | 0.0 | 0.0 | 2.71 | 0.00 | 0.00 | 1015.6 | |
| 20260505055128 | 56 | 174 | 0.0 | 0.0 | 2.71 | 0.00 | 0.00 | 1015.7 | |
| 20260505054628 | 56 | 174 | 0.0 | 0.0 | 2.71 | 0.00 | 0.00 | 1015.7 | |
| 20260505054128 | 56 | 174 | 0.0 | 0.0 | 2.71 | 0.00 | 0.00 | 1015.7 | |
| 20260505053628 | 56 | 174 | 0.0 | 0.0 | 2.71 | 0.00 | 0.00 | 1015.9 | |
| 20260505053128 | 56 | 174 | 0.0 | 0.0 | 2.71 | 0.00 | 0.00 | 1015.9 | |
| 20260505052628 | 56 | 174 | 0.0 | 0.0 | 2.71 | 0.00 | 0.00 | 1016.0 | |
| 20260505052546 | 56 | 174 | 0.0 | 0.0 | 2.71 | 0.00 | 0.00 | 1016.0 | |
| 20260505052542 | 56 | 174 | 0.0 | 0.0 | 2.71 | 0.00 | 0.00 | 1016.0 | |
| 20260505052201 | 56 | 174 | 0.0 | 0.0 | 2.71 | 0.00 | 0.00 | 1016.0 | |
| 20260505052129 | 56 | 174 | 0.0 | 0.0 | 2.71 | 0.00 | 0.00 | 1016.0 | |
| 20260505051839 | 56 | 174 | 0.0 | 0.0 | 2.71 | 0.00 | 0.00 | 1016.0 | |
| 20260505051628 | 56 | 174 | 0.0 | 0.0 | 2.71 | 0.00 | 0.00 | 1016.0 | |
| 20260505051257 | 57 | 174 | 0.0 | 0.0 | 2.71 | 0.00 | 0.00 | 1016.0 | |
| 20260505051128 | 57 | 174 | 0.0 | 0.0 | 2.71 | 0.00 | 0.00 | 1016.0 | |
| 20260505050742 | 57 | 174 | 0.0 | 0.0 | 2.71 | 0.00 | 0.00 | 1016.1 | |
| 20260505050628 | 57 | 174 | 0.0 | 0.0 | 2.71 | 0.00 | 0.00 | 1016.1 | |
| 20260505050130 | 57 | 174 | 0.0 | 0.0 | 2.71 | 0.00 | 0.00 | 1016.1 | |
| 20260505041628 | 59 | 174 | 0.0 | 0.0 | 2.71 | 0.00 | 0.00 | 1016.1 | |
| 20260505041206 | 59 | 174 | 0.0 | 0.0 | 2.71 | 0.00 | 0.00 | 1016.2 | |
| 20260505041128 | 59 | 174 | 0.0 | 0.0 | 2.71 | 0.00 | 0.00 | 1016.2 | |
| 20260505040628 | 59 | 174 | 0.0 | 0.0 | 2.71 | 0.00 | 0.00 | 1016.1 | |
| 20260505040130 | 59 | 174 | 0.0 | 0.0 | 2.71 | 0.00 | 0.00 | 1016.1 | |
| 20260505035636 | 59 | 174 | 0.0 | 0.0 | 2.71 | 0.00 | 0.00 | 1016.1 | |
| 20260505035128 | 60 | 174 | 0.0 | 0.0 | 2.71 | 0.00 | 0.00 | 1016.1 | |
| 20260505034701 | 60 | 174 | 0.0 | 0.0 | 2.71 | 0.00 | 0.00 | 1016.1 | |
| 20260505034628 | 60 | 174 | 0.0 | 0.0 | 2.71 | 0.00 | 0.00 | 1016.1 | |
| 20260505034202 | 60 | 174 | 0.0 | 0.0 | 2.71 | 0.00 | 0.00 | 1016.2 | |
| 20260505034128 | 60 | 174 | 0.0 | 0.0 | 2.71 | 0.00 | 0.00 | 1016.2 | |
| 20260505033628 | 60 | 174 | 0.0 | 0.0 | 2.71 | 0.00 | 0.00 | 1016.2 | |
| 20260505033128 | 60 | 174 | 0.0 | 0.0 | 2.71 | 0.00 | 0.00 | 1016.2 | |
| 20260505032757 | 60 | 174 | 0.0 | 0.0 | 2.71 | 0.00 | 0.00 | 1016.2 | |
| 20260505032628 | 60 | 174 | 0.0 | 0.0 | 2.71 | 0.00 | 0.00 | 1016.2 | |
| 20260505032128 | 60 | 174 | 0.0 | 0.0 | 2.71 | 0.00 | 0.00 | 1016.2 | |
| 20260505031628 | 60 | 174 | 0.0 | 0.0 | 2.71 | 0.00 | 0.00 | 1016.2 | |
| 20260505031128 | 61 | 174 | 0.0 | 0.0 | 2.71 | 0.00 | 0.00 | 1016.2 | |
| 20260505030628 | 61 | 174 | 0.0 | 0.0 | 2.71 | 0.00 | 0.00 | 1016.2 | |
| 20260505030128 | 61 | 174 | 0.0 | 0.0 | 2.71 | 0.00 | 0.00 | 1016.2 | |
| 20260505025628 | 61 | 174 | 0.0 | 0.0 | 2.71 | 0.00 | 0.00 | 1016.2 | |
| 20260505025128 | 62 | 198 | 0.0 | 0.0 | 2.71 | 0.00 | 0.00 | 1016.2 | |
| 20260505024628 | 62 | 198 | 0.0 | 0.0 | 2.71 | 0.00 | 0.00 | 1016.1 | |
| 20260505024204 | 62 | 163 | 0.0 | 0.0 | 2.71 | 0.00 | 0.00 | 1016.0 | |
| 20260505024128 | 62 | 163 | 0.0 | 0.0 | 2.71 | 0.00 | 0.00 | 1016.0 | |
| 20260505023628 | 62 | 150 | 0.0 | 0.0 | 2.71 | 0.00 | 0.00 | 1015.9 | |
| 20260505023129 | 62 | 150 | 0.0 | 0.0 | 2.71 | 0.00 | 0.00 | 1015.9 | |
| 20260505022628 | 62 | 174 | 2.6 | 0.0 | 2.71 | 0.00 | 0.00 | 1015.8 | |
| 20260505022128 | 62 | 176 | 0.0 | 0.0 | 2.71 | 0.00 | 0.00 | 1015.8 | |
| 20260505021628 | 62 | 176 | 0.0 | 0.0 | 2.71 | 0.00 | 0.00 | 1015.7 | |
| 20260505021202 | 63 | 176 | 0.0 | 0.0 | 2.71 | 0.00 | 0.00 | 1015.6 | |
| 20260505021129 | 63 | 176 | 0.0 | 0.0 | 2.71 | 0.00 | 0.00 | 1015.6 | |
| 20260505020851 | 63 | 176 | 0.0 | 0.0 | 2.71 | 0.00 | 0.00 | 1015.7 | |
| 20260505020629 | 63 | 176 | 0.0 | 0.0 | 2.71 | 0.00 | 0.00 | 1015.7 | |
| 20260505020129 | 63 | 176 | 0.0 | 0.0 | 2.71 | 0.00 | 0.00 | 1015.6 | |
| 20260505015629 | 63 | 127 | 0.0 | 0.0 | 2.71 | 0.00 | 0.00 | 1015.6 | |
| 20260505015129 | 63 | 127 | 0.0 | 0.0 | 2.71 | 0.00 | 0.00 | 1015.5 | |
| 20260505014629 | 64 | 127 | 0.0 | 0.0 | 2.71 | 0.00 | 0.00 | 1015.5 | |
| 20260505014129 | 64 | 127 | 0.0 | 0.0 | 2.71 | 0.00 | 0.00 | 1015.5 | |
| 20260505013629 | 64 | 127 | 0.0 | 0.0 | 2.71 | 0.00 | 0.00 | 1015.3 | |
| 20260505013129 | 64 | 127 | 0.0 | 0.0 | 2.71 | 0.00 | 0.00 | 1015.2 | |
| 20260505012704 | 64 | 127 | 0.0 | 0.0 | 2.71 | 0.00 | 0.00 | 1015.1 | |
| 20260505012629 | 64 | 127 | 0.0 | 0.0 | 2.71 | 0.00 | 0.00 | 1015.1 | |
| 20260505012129 | 65 | 127 | 0.0 | 0.0 | 2.71 | 0.00 | 0.00 | 1015.1 | |
| 20260505011629 | 65 | 127 | 0.0 | 0.0 | 2.71 | 0.00 | 0.00 | 1015.0 | |
| 20260505011129 | 65 | 127 | 0.0 | 0.0 | 2.71 | 0.00 | 0.00 | 1014.9 | |
| 20260505010821 | 65 | 127 | 0.0 | 0.0 | 2.71 | 0.00 | 0.00 | 1014.9 | |
| 20260505010629 | 65 | 127 | 0.0 | 0.0 | 2.71 | 0.00 | 0.00 | 1014.9 | |
| 20260505010129 | 66 | 127 | 0.0 | 0.0 | 2.71 | 0.00 | 0.00 | 1014.8 | |
| 20260505005629 | 66 | 127 | 0.0 | 0.0 | 2.71 | 0.00 | 0.00 | 1014.7 | |
| 20260505005129 | 66 | 127 | 0.0 | 0.0 | 2.71 | 0.00 | 0.00 | 1014.7 | |
| 20260505004629 | 67 | 127 | 0.0 | 0.0 | 2.71 | 0.00 | 0.00 | 1014.8 | |
| 20260505004129 | 67 | 127 | 0.0 | 0.0 | 2.71 | 0.00 | 0.00 | 1014.6 | |
| 20260505003629 | 67 | 127 | 0.0 | 0.0 | 2.71 | 0.00 | 0.00 | 1014.6 | |
| 20260505003129 | 68 | 127 | 0.0 | 0.0 | 2.71 | 0.00 | 0.00 | 1014.6 | |
| 20260505002629 | 68 | 127 | 0.0 | 0.0 | 2.71 | 0.00 | 0.00 | 1014.5 | |
| 20260505002129 | 69 | 127 | 0.0 | 0.0 | 2.71 | 0.00 | 0.00 | 1014.4 | |
| 20260505001629 | 69 | 127 | 0.0 | 0.0 | 2.71 | 0.00 | 0.00 | 1014.4 | |
| 20260505001129 | 69 | 169 | 2.6 | 0.0 | 2.71 | 0.00 | 0.00 | 1014.4 | |
| 20260505000629 | 70 | 149 | 0.0 | 0.0 | 2.71 | 0.00 | 0.00 | 1014.3 | |
| 20260505000129 | 71 | 149 | 0.0 | 0.0 | 2.71 | 0.00 | 0.00 | 1014.3 | |
| 20260504235629 | 72 | 149 | 0.0 | 0.0 | 2.71 | 0.00 | 0.00 | 1014.2 | |
| 20260504235129 | 72 | 149 | 0.0 | 0.0 | 2.71 | 0.00 | 0.00 | 1014.2 | |
| 20260504234629 | 73 | 184 | 0.0 | 0.0 | 2.71 | 0.00 | 0.00 | 1014.1 | |
| 20260504234129 | 75 | 184 | 0.0 | 0.0 | 2.71 | 0.00 | 0.00 | 1014.1 | |
| 20260504233629 | 76 | 184 | 0.0 | 0.0 | 2.71 | 0.00 | 0.00 | 1014.1 | |
| 20260504233129 | 77 | 184 | 0.0 | 0.0 | 2.71 | 0.00 | 0.00 | 1014.0 | |
| 20260504232733 | 77 | 129 | 0.0 | 0.0 | 2.71 | 0.00 | 0.00 | 1014.0 | |
| 20260504232629 | 77 | 129 | 0.0 | 0.0 | 2.71 | 0.00 | 0.00 | 1014.0 | |
| 20260504232129 | 78 | 129 | 0.0 | 0.0 | 2.71 | 0.00 | 0.00 | 1013.9 | |
| 20260504231629 | 78 | 187 | 0.0 | 0.0 | 2.71 | 0.00 | 0.00 | 1013.9 | |
| 20260504231202 | 78 | 225 | 4.3 | 0.0 | 2.71 | 0.00 | 0.00 | 1013.9 | |
| 20260504231129 | 78 | 225 | 4.3 | 0.0 | 2.71 | 0.00 | 0.00 | 1013.9 | |
| 20260504230629 | 79 | 218 | 0.0 | 0.0 | 2.71 | 0.00 | 0.00 | 1013.8 | |
| 20260504230129 | 80 | 187 | 0.0 | 0.0 | 2.71 | 0.00 | 0.00 | 1013.8 | |
| 20260504225629 | 80 | 159 | 0.9 | 0.0 | 2.71 | 0.00 | 0.00 | 1013.8 | |
| 20260504225129 | 80 | 170 | 0.0 | 0.0 | 2.71 | 0.00 | 0.00 | 1013.7 | |
| 20260504224629 | 81 | 158 | 0.9 | 0.0 | 2.71 | 0.00 | 0.00 | 1013.8 | |
| 20260504224129 | 81 | 330 | 0.0 | 0.0 | 2.71 | 0.00 | 0.00 | 1013.9 | |
| 20260504223629 | 81 | 176 | 0.0 | 0.0 | 2.71 | 0.00 | 0.00 | 1013.9 | |
| 20260504223129 | 82 | 188 | 0.0 | 0.0 | 2.71 | 0.00 | 0.00 | 1013.8 | |
| 20260504222629 | 82 | 169 | 1.7 | 0.0 | 2.71 | 0.00 | 0.00 | 1013.8 | |
| 20260504222129 | 83 | 212 | 4.3 | 0.0 | 2.71 | 0.00 | 0.00 | 1013.8 | |
| 20260504221629 | 83 | 188 | 0.0 | 0.0 | 2.71 | 0.00 | 0.00 | 1013.8 | |
| 20260504221129 | 84 | 181 | 0.0 | 0.0 | 2.71 | 0.00 | 0.00 | 1013.9 | |
| 20260504220629 | 84 | 287 | 0.0 | 0.0 | 2.71 | 0.00 | 0.00 | 1013.9 | |
| 20260504220129 | 84 | 217 | 0.0 | 0.0 | 2.71 | 0.00 | 0.00 | 1013.8 | |
| 20260504215629 | 84 | 191 | 0.0 | 0.0 | 2.71 | 0.00 | 0.00 | 1013.8 | |
| 20260504215129 | 84 | 160 | 0.0 | 0.0 | 2.71 | 0.00 | 0.00 | 1013.8 | |
| 20260504214629 | 84 | 172 | 4.3 | 0.0 | 2.71 | 0.00 | 0.00 | 1013.7 | |
| 20260504214130 | 84 | 173 | 3.5 | 0.0 | 2.71 | 0.00 | 0.00 | 1013.7 | |
| 20260504213629 | 85 | 179 | 0.0 | 0.0 | 2.71 | 0.00 | 0.00 | 1013.7 | |
| 20260504213129 | 85 | 104 | 0.0 | 0.0 | 2.71 | 0.00 | 0.00 | 1013.8 | |
| 20260504212629 | 85 | 188 | 2.6 | 0.0 | 2.71 | 0.00 | 0.00 | 1013.8 | |
| 20260504212129 | 86 | 195 | 2.6 | 0.0 | 2.71 | 0.00 | 0.00 | 1013.8 | |
| 20260504211629 | 85 | 188 | 2.6 | 0.0 | 2.71 | 0.00 | 0.00 | 1013.8 | |
| 20260504211129 | 84 | 273 | 0.0 | 0.0 | 2.71 | 0.00 | 0.00 | 1013.9 | |
| 20260504210629 | 85 | 201 | 0.0 | 0.0 | 2.71 | 0.00 | 0.00 | 1013.9 | |
| 20260504210129 | 84 | 191 | 0.0 | 0.0 | 2.71 | 0.00 | 0.00 | 1013.9 | |
| 20260504205629 | 82 | 210 | 0.0 | 0.0 | 2.71 | 0.00 | 0.00 | 1013.9 | |
| 20260504205130 | 86 | 159 | 0.0 | 0.0 | 2.71 | 0.00 | 0.00 | 1013.9 | |
| 20260504204629 | 86 | 190 | 4.3 | 0.0 | 2.71 | 0.00 | 0.00 | 1013.9 | |
| 20260504204129 | 87 | 195 | 0.0 | 0.0 | 2.71 | 0.00 | 0.00 | 1014.0 | |
| 20260504203629 | 86 | 146 | 0.0 | 0.0 | 2.71 | 0.00 | 0.00 | 1014.0 | |
| 20260504203129 | 86 | 177 | 0.0 | 0.0 | 2.71 | 0.00 | 0.00 | 1014.1 | |
| 20260504202629 | 85 | 274 | 0.0 | 0.0 | 2.71 | 0.00 | 0.00 | 1014.2 | |
| 20260504202129 | 84 | 259 | 0.0 | 0.0 | 2.71 | 0.00 | 0.00 | 1014.2 | |
| 20260504201629 | 86 | 167 | 2.6 | 0.0 | 2.71 | 0.00 | 0.00 | 1014.2 |